Regional Weather Roundup
Issued by NWS

Home | Current Version | Previous Version | Graphics & Text | Print | Product List | Glossary Off
Versions: 1 2 3 4 5 6 7 8 9 10 11 12 13 14 15 16 17 18 19 20 21 22 23 24 25 26 27 28 29 30 31 32 33 34 35 36 37 38 39 40 41 42 43 44 45 46 47 48 49 50

000
ASUS43 KTOP 221508
RWRKS

WEATHER ROUNDUP FOR KANSAS
NATIONAL WEATHER SERVICE GOODLAND KS
1000 AM CDT SUN APR 22 2018

NOTE:  "FAIR" INDICATES FEW OR NO CLOUDS BELOW 12,000 FEET WITH NO
SIGNIFICANT WEATHER AND/OR OBSTRUCTIONS TO VISIBILITY.

KSZ001>006-013>018-027>032-041>047-221600-
NORTHWEST KANSAS

CITY           SKY/WX    TMP DP  RH WIND       PRES   REMARKS
GOODLAND       FAIR      42  38  85 CALM      30.22R
HAYS           CLOUDY    47  41  80 N17       30.22F
HILL CITY      SUNNY     46  41  82 N12       30.25S
RUSSELL        CLOUDY    49  44  83 N18       30.21R
$$

KSZ061>065-074>080-084>089-221600-
SOUTHWEST KANSAS

CITY           SKY/WX    TMP DP  RH WIND       PRES   REMARKS
DODGE CITY     MOSUNNY   46  39  76 N15G24    30.21S
ELKHART        MOSUNNY   46  41  81 N7        30.22S
GARDEN CITY    MOSUNNY   43  40  89 N13       30.23R
GREAT BEND     CLOUDY    46  43  87 N17       30.21R
LIBERAL        CLOUDY    44  40  85 NW13      30.24R
PRATT          CLOUDY    46  41  84 N17G23    30.19R
$$

KSZ066>073-081>083-090>101-221600-
SOUTHEAST KANSAS

CITY           SKY/WX    TMP DP  RH WIND       PRES   REMARKS
CHANUTE        LGT RAIN  49  47  93 N9        30.05S
COFFEYVILLE    LGT RAIN  50  48  93 N10       30.02F
HUTCHINSON     CLOUDY    47  40  76 N15       30.15S
MEDICINE LODGE   N/A     48  42  80 N17G28    30.15S
NEWTON         CLOUDY    48  42  80 N22       30.13R
PARSONS        LGT RAIN  50  48  93 N8        30.04R
WICHITA INTL   CLOUDY    49  43  80 N20       30.12R
WICHITA JABRA  CLOUDY    47  44  90 N16       30.11R
WICHITA MCCONL CLOUDY    47  42  84 N15       30.11R
WINFIELD       CLOUDY    47  46  97 N15       30.09F
$$

KSZ007>012-019>026-033>040-048>060-102>105-221600-
NORTHEAST KANSAS

CITY           SKY/WX    TMP DP  RH WIND       PRES   REMARKS
CONCORDIA      CLOUDY    46  37  71 N10       30.19S
EMPORIA        CLOUDY    48  42  80 N13       30.10R
LAWRENCE       CLOUDY    50  40  68 NE14      30.13S
MANHATTAN      MOSUNNY   53  38  56 NE13      30.16R
MARYSVILLE     CLOUDY    50  37  62 NE10      30.18R
OLATHE IND     LGT RAIN  48  44  86 NE12G21   30.12R
OLATHE EXE     LGT RAIN  45  43  93 NE14      30.11R FOG
SALINA         CLOUDY    48  40  73 N14       30.18R
TOPEKA BILLARD CLOUDY    51  41  68 NE8       30.13S
TOPEKA FORBES  CLOUDY    51  42  71 NE9       30.12S
$$




USA.gov is the U.S. government's official web portal to all federal, state and local government web resources and services.